WXM80 ListenWXM80 Stop

You find our weather info also at:

UK Metoffice

WeatherCloud

Weather Underground

Northeastern Weather Network

AWEKAS

Citizen Weather Observer Program (CWOP)

HAMweather, WeatherForYou, PWS Weather


Weather Underground History page Text

Daily Summary for November 19, 2016 Units:  English    Metric   Both
« Previous Day
Next Day »
Daily Weekly Monthly Yearly Custom
  High: Low: Average:
Temperature: 57.6 °F 40.4 °F 49.9 °F
Dew Point: 51.8 °F 38.5 °F 46.6 °F
Humidity: 97 % 79 % 89 %
Wind Speed: 6.5 mph 0.0 mph 1.7 mph
Wind Gust: 10.4 mph - -
Wind:- - ESE
Pressure: 30.01 in 29.45 in -
Precipitation: 0.00 in    
Historical Graphs
 
 
Tabular Data for November 19, 2016
Time Temperature Dew Point Pressure Wind Wind Speed Wind Gust Humidity Rainfall Rate (Hourly)
00:10 44.1 °F 39.9 °F 30.01 in Calm     85 % 0.00 in
00:15 43.9 °F 40.0 °F 30.01 in Calm     86 % 0.00 in
00:20 43.8 °F 40.2 °F 30.01 in West 0.8 mph 2.3 mph 87 % 0.00 in
00:25 43.8 °F 40.2 °F 30.01 in West 0.6 mph 1.2 mph 87 % 0.00 in
00:30 43.7 °F 40.4 °F 30.00 in Calm   1.0 mph 88 % 0.00 in
00:35 43.7 °F 40.4 °F 30.00 in West 1.0 mph 1.0 mph 88 % 0.00 in
00:40 43.6 °F 40.3 °F 30.00 in West 0.8 mph 2.3 mph 88 % 0.00 in
00:45 43.6 °F 40.3 °F 30.01 in Calm   1.0 mph 88 % 0.00 in
00:50 43.5 °F 40.2 °F 30.01 in Calm     88 % 0.00 in
00:55 43.4 °F 40.1 °F 30.00 in Calm   1.0 mph 88 % 0.00 in
01:00 43.4 °F 40.1 °F 30.01 in West 0.4 mph 2.3 mph 88 % 0.00 in
01:05 43.3 °F 40.0 °F 30.01 in West 1.7 mph 2.3 mph 88 % 0.00 in
01:10 43.2 °F 39.9 °F 30.01 in Calm     88 % 0.00 in
01:15 43.1 °F 39.8 °F 30.01 in Calm     88 % 0.00 in
01:20 43.0 °F 39.7 °F 30.01 in Calm     88 % 0.00 in
01:26 42.9 °F 39.6 °F 30.01 in West 0.1 mph 1.0 mph 88 % 0.00 in
01:31 42.8 °F 39.8 °F 30.00 in West 0.8 mph 1.2 mph 89 % 0.00 in
01:36 42.8 °F 39.8 °F 30.01 in West 0.1 mph 1.0 mph 89 % 0.00 in
01:41 42.7 °F 39.7 °F 30.00 in West 0.4 mph 1.2 mph 89 % 0.00 in
01:46 42.7 °F 39.7 °F 30.01 in Calm     89 % 0.00 in
01:51 42.6 °F 39.9 °F 30.00 in Calm     90 % 0.00 in
01:56 42.6 °F 39.9 °F 30.01 in Calm     90 % 0.00 in
02:01 42.5 °F 39.8 °F 30.01 in Calm     90 % 0.00 in
02:06 42.5 °F 39.5 °F 30.00 in Calm     89 % 0.00 in
02:11 42.4 °F 39.7 °F 30.00 in Calm   1.2 mph 90 % 0.00 in
02:17 42.3 °F 39.6 °F 30.00 in Calm     90 % 0.00 in
02:22 42.2 °F 39.5 °F 30.00 in Calm     90 % 0.00 in
02:27 42.1 °F 39.4 °F 30.00 in West 0.1 mph 1.0 mph 90 % 0.00 in
02:32 42.0 °F 39.3 °F 30.00 in Calm     90 % 0.00 in
02:37 42.0 °F 39.3 °F 30.00 in Calm     90 % 0.00 in
02:42 41.9 °F 39.2 °F 30.00 in Calm   1.2 mph 90 % 0.00 in
02:47 41.9 °F 39.5 °F 30.00 in West 0.2 mph 1.0 mph 91 % 0.00 in
02:52 41.9 °F 39.5 °F 30.00 in Calm   1.2 mph 91 % 0.00 in
02:57 41.9 °F 39.7 °F 29.99 in West 1.1 mph 2.3 mph 92 % 0.00 in
03:02 42.0 °F 39.8 °F 29.99 in West 0.2 mph 1.2 mph 92 % 0.00 in
03:07 42.0 °F 39.8 °F 29.99 in Calm     92 % 0.00 in
03:13 42.0 °F 39.8 °F 29.99 in Calm     92 % 0.00 in
03:18 42.0 °F 39.8 °F 29.99 in Calm     92 % 0.00 in
03:23 42.0 °F 39.8 °F 29.99 in West 0.4 mph 1.2 mph 92 % 0.00 in
03:28 42.0 °F 39.8 °F 29.99 in Calm     92 % 0.00 in
03:33 41.9 °F 39.7 °F 29.99 in Calm     92 % 0.00 in
03:38 41.9 °F 39.7 °F 29.99 in West 0.1 mph   92 % 0.00 in
03:43 41.9 °F 39.7 °F 29.99 in Calm     92 % 0.00 in
03:48 41.8 °F 39.6 °F 29.99 in Calm     92 % 0.00 in
03:53 41.7 °F 39.5 °F 29.99 in Calm     92 % 0.00 in
03:58 41.7 °F 39.5 °F 29.99 in Calm     92 % 0.00 in
04:04 41.6 °F 39.4 °F 29.99 in Calm   1.2 mph 92 % 0.00 in
04:09 41.6 °F 39.4 °F 29.99 in Calm     92 % 0.00 in
04:14 41.5 °F 39.3 °F 29.98 in West 1.0 mph 2.3 mph 92 % 0.00 in
04:19 41.5 °F 39.3 °F 29.99 in West 0.2 mph 1.2 mph 92 % 0.00 in
04:24 41.5 °F 39.6 °F 29.99 in Calm   1.2 mph 93 % 0.00 in
04:29 41.5 °F 39.6 °F 29.99 in West 0.1 mph 1.2 mph 93 % 0.00 in
04:34 41.5 °F 39.6 °F 29.99 in Calm     93 % 0.00 in
04:44 41.5 °F 39.6 °F 29.99 in Calm     93 % 0.00 in
04:49 41.5 °F 39.6 °F 29.99 in Calm     93 % 0.00 in
04:55 41.5 °F 39.6 °F 29.99 in Calm   1.2 mph 93 % 0.00 in
05:00 41.5 °F 39.6 °F 29.99 in Calm     93 % 0.00 in
05:05 41.5 °F 39.6 °F 29.99 in Calm     93 % 0.00 in
05:10 41.5 °F 39.6 °F 29.99 in Calm     93 % 0.00 in
05:15 41.4 °F 39.5 °F 29.99 in Calm     93 % 0.00 in
05:20 41.4 °F 39.5 °F 29.98 in Calm     93 % 0.00 in
05:25 41.4 °F 39.5 °F 29.98 in Calm     93 % 0.00 in
05:30 41.3 °F 39.4 °F 29.99 in Calm     93 % 0.00 in
05:35 41.3 °F 39.4 °F 29.98 in Calm   1.0 mph 93 % 0.00 in
05:40 41.2 °F 39.3 °F 29.98 in Calm     93 % 0.00 in
05:45 41.1 °F 39.2 °F 29.98 in Calm     93 % 0.00 in
05:50 41.1 °F 39.2 °F 29.98 in Calm     93 % 0.00 in
05:55 41.0 °F 39.1 °F 29.98 in Calm     93 % 0.00 in
06:00 40.9 °F 39.0 °F 29.98 in Calm     93 % 0.00 in
06:05 40.9 °F 39.0 °F 29.97 in Calm     93 % 0.00 in
06:10 40.8 °F 38.9 °F 29.97 in Calm     93 % 0.00 in
06:15 40.7 °F 38.8 °F 29.97 in Calm     93 % 0.00 in
06:20 40.6 °F 38.7 °F 29.98 in Calm     93 % 0.00 in
06:26 40.5 °F 38.6 °F 29.98 in Calm     93 % 0.00 in
06:31 40.4 °F 38.5 °F 29.97 in Calm     93 % 0.00 in
06:36 40.4 °F 38.5 °F 29.97 in Calm     93 % 0.00 in
06:41 40.4 °F 38.8 °F 29.97 in Calm     94 % 0.00 in
06:46 40.4 °F 38.8 °F 29.97 in Calm     94 % 0.00 in
06:51 40.5 °F 38.9 °F 29.97 in Calm     94 % 0.00 in
06:56 40.5 °F 38.9 °F 29.97 in Calm     94 % 0.00 in
07:01 40.6 °F 39.0 °F 29.96 in Calm     94 % 0.00 in
07:06 40.8 °F 39.5 °F 29.96 in Calm     95 % 0.00 in
07:11 41.1 °F 39.8 °F 29.97 in Calm     95 % 0.00 in
07:16 41.3 °F 40.0 °F 29.96 in Calm     95 % 0.00 in
07:22 41.4 °F 40.1 °F 29.96 in Calm     95 % 0.00 in
07:27 41.6 °F 40.3 °F 29.96 in Calm     95 % 0.00 in
07:32 41.9 °F 40.8 °F 29.96 in Calm     96 % 0.00 in
07:37 42.2 °F 41.1 °F 29.97 in Calm     96 % 0.00 in
07:42 42.4 °F 41.3 °F 29.97 in Calm     96 % 0.00 in
07:47 42.7 °F 41.6 °F 29.97 in Calm     96 % 0.00 in
07:52 43.0 °F 41.9 °F 29.97 in Calm     96 % 0.00 in
07:57 43.3 °F 42.2 °F 29.96 in Calm   1.2 mph 96 % 0.00 in
08:02 43.7 °F 42.6 °F 29.96 in East 0.3 mph 2.3 mph 96 % 0.00 in
08:07 44.2 °F 43.4 °F 29.96 in ENE 0.6 mph 2.3 mph 97 % 0.00 in
08:12 44.6 °F 43.8 °F 29.96 in Calm     97 % 0.00 in
08:18 45.2 °F 44.4 °F 29.96 in ENE 3.8 mph 5.0 mph 97 % 0.00 in
08:23 46.6 °F 45.8 °F 29.95 in ENE 4.0 mph 5.0 mph 97 % 0.00 in
08:28 47.6 °F 46.8 °F 29.95 in ENE 3.9 mph 4.6 mph 97 % 0.00 in
08:33 48.2 °F 47.4 °F 29.95 in ENE 3.0 mph 6.9 mph 97 % 0.00 in
08:38 48.8 °F 48.0 °F 29.95 in ENE 3.7 mph 5.0 mph 97 % 0.00 in
08:43 49.3 °F 48.5 °F 29.95 in ENE 3.7 mph 5.0 mph 97 % 0.00 in
08:48 49.8 °F 49.0 °F 29.94 in ENE 1.7 mph 4.6 mph 97 % 0.00 in
08:53 50.4 °F 49.3 °F 29.94 in ENE 5.2 mph 8.1 mph 96 % 0.00 in
08:58 51.1 °F 49.7 °F 29.94 in East 3.4 mph 6.9 mph 95 % 0.00 in
09:03 51.9 °F 49.6 °F 29.94 in NE 2.0 mph 4.0 mph 92 % 0.00 in
09:09 52.7 °F 49.8 °F 29.94 in ENE 4.9 mph 7.0 mph 90 % 0.00 in
09:14 53.4 °F 49.6 °F 29.93 in ENE 2.1 mph 3.5 mph 87 % 0.00 in
09:19 54.1 °F 50.3 °F 29.93 in ENE 4.9 mph 8.1 mph 87 % 0.00 in
09:24 54.4 °F 49.7 °F 29.92 in ENE 3.8 mph 5.8 mph 84 % 0.00 in
09:29 54.8 °F 49.7 °F 29.92 in ENE 4.6 mph 7.0 mph 83 % 0.00 in
09:34 54.9 °F 49.5 °F 29.92 in NE 4.3 mph 5.8 mph 82 % 0.00 in
09:39 55.2 °F 49.5 °F 29.92 in ENE 3.4 mph 8.1 mph 81 % 0.00 in
09:44 55.6 °F 50.2 °F 29.92 in ENE 2.1 mph 3.5 mph 82 % 0.00 in
09:49 55.9 °F 49.8 °F 29.92 in NE 2.6 mph 3.5 mph 80 % 0.00 in
09:54 56.0 °F 49.6 °F 29.92 in ENE 3.9 mph 7.0 mph 79 % 0.00 in
10:00 56.1 °F 50.0 °F 29.92 in ENE 2.6 mph 3.5 mph 80 % 0.00 in
10:05 56.3 °F 50.2 °F 29.92 in ENE 1.9 mph 5.8 mph 80 % 0.00 in
10:10 56.5 °F 50.1 °F 29.91 in East 2.8 mph 4.6 mph 79 % 0.00 in
10:15 56.5 °F 50.1 °F 29.91 in ENE 3.2 mph 7.0 mph 79 % 0.00 in
10:20 56.4 °F 50.3 °F 29.90 in ENE 3.0 mph 9.0 mph 80 % 0.00 in
10:25 56.3 °F 49.9 °F 29.90 in East 3.9 mph 8.1 mph 79 % 0.00 in
10:30 56.5 °F 50.4 °F 29.90 in ENE 4.3 mph 8.1 mph 80 % 0.00 in
10:35 56.6 °F 50.5 °F 29.90 in ENE 2.1 mph 6.9 mph 80 % 0.00 in
10:40 56.9 °F 51.1 °F 29.89 in ENE 3.4 mph 6.9 mph 81 % 0.00 in
10:45 56.7 °F 50.6 °F 29.89 in ENE 5.9 mph 8.1 mph 80 % 0.00 in
10:51 56.6 °F 50.8 °F 29.88 in ENE 5.4 mph 8.1 mph 81 % 0.00 in
10:56 56.3 °F 50.5 °F 29.88 in ENE 5.2 mph 8.0 mph 81 % 0.00 in
11:01 56.1 °F 50.3 °F 29.87 in ENE 1.6 mph 6.9 mph 81 % 0.00 in
11:06 56.0 °F 50.9 °F 29.86 in East 2.8 mph 4.6 mph 83 % 0.00 in
11:11 55.9 °F 50.5 °F 29.86 in ENE 5.0 mph 10.4 mph 82 % 0.00 in
11:16 55.8 °F 50.1 °F 29.85 in ENE 4.7 mph 8.1 mph 81 % 0.00 in
11:21 55.7 °F 50.0 °F 29.84 in ENE 4.8 mph 9.2 mph 81 % 0.00 in
11:26 55.7 °F 50.0 °F 29.84 in East 5.1 mph 8.1 mph 81 % 0.00 in
11:31 55.8 °F 50.1 °F 29.83 in ENE 4.0 mph 6.9 mph 81 % 0.00 in
11:36 55.9 °F 50.5 °F 29.83 in ENE 4.3 mph 6.9 mph 82 % 0.00 in
11:42 55.9 °F 50.2 °F 29.83 in East 5.8 mph 9.2 mph 81 % 0.00 in
11:47 55.9 °F 50.2 °F 29.82 in ENE 4.3 mph 10.4 mph 81 % 0.00 in
11:52 55.9 °F 50.5 °F 29.82 in East 5.5 mph 9.2 mph 82 % 0.00 in
11:57 55.9 °F 50.2 °F 29.82 in ENE 6.5 mph 10.4 mph 81 % 0.00 in
12:02 55.8 °F 50.4 °F 29.82 in NE 5.5 mph 10.4 mph 82 % 0.00 in
12:07 55.9 °F 50.5 °F 29.82 in ENE 5.2 mph 9.2 mph 82 % 0.00 in
12:12 55.9 °F 50.5 °F 29.81 in ENE 4.9 mph 10.4 mph 82 % 0.00 in
12:17 55.8 °F 50.4 °F 29.81 in ENE 5.0 mph 8.1 mph 82 % 0.00 in
12:22 55.9 °F 50.8 °F 29.81 in ENE 3.5 mph 6.9 mph 83 % 0.00 in
12:27 56.0 °F 50.6 °F 29.81 in ENE 6.5 mph 9.2 mph 82 % 0.00 in
12:32 55.9 °F 50.5 °F 29.80 in ENE 6.4 mph 10.4 mph 82 % 0.00 in
12:37 55.9 °F 50.5 °F 29.80 in East 5.8 mph 10.4 mph 82 % 0.00 in
12:42 55.9 °F 50.5 °F 29.81 in ENE 3.2 mph 6.9 mph 82 % 0.00 in
12:48 55.8 °F 50.7 °F 29.80 in ENE 4.4 mph 8.1 mph 83 % 0.00 in
12:53 55.9 °F 50.8 °F 29.80 in ENE 3.5 mph 4.6 mph 83 % 0.00 in
12:58 56.0 °F 50.9 °F 29.80 in ENE 2.8 mph 5.0 mph 83 % 0.00 in
13:03 56.2 °F 51.1 °F 29.80 in ENE 5.9 mph 6.9 mph 83 % 0.00 in
13:08 56.4 °F 51.3 °F 29.79 in ENE 3.1 mph 4.6 mph 83 % 0.00 in
13:13 56.6 °F 51.2 °F 29.79 in NE 3.2 mph 6.9 mph 82 % 0.00 in
13:18 56.9 °F 51.1 °F 29.78 in ENE 4.4 mph 8.1 mph 81 % 0.00 in
13:23 57.2 °F 51.8 °F 29.78 in NE 3.7 mph 9.2 mph 82 % 0.00 in
13:28 57.3 °F 51.2 °F 29.78 in NE 4.5 mph 8.1 mph 80 % 0.00 in
13:33 57.4 °F 51.6 °F 29.78 in ENE 4.8 mph 8.1 mph 81 % 0.00 in
13:39 57.5 °F 51.4 °F 29.78 in ENE 4.5 mph 8.1 mph 80 % 0.00 in
13:44 57.5 °F 51.7 °F 29.78 in ENE 3.5 mph 8.1 mph 81 % 0.00 in
13:49 57.6 °F 51.5 °F 29.78 in ENE 4.5 mph 4.6 mph 80 % 0.00 in
13:54 57.6 °F 51.5 °F 29.77 in ENE 5.1 mph 8.1 mph 80 % 0.00 in
13:59 57.5 °F 51.4 °F 29.77 in ENE 3.7 mph 6.9 mph 80 % 0.00 in
14:04 57.4 °F 51.3 °F 29.77 in NE 3.3 mph 6.9 mph 80 % 0.00 in
14:09 57.2 °F 51.1 °F 29.76 in ENE 4.6 mph 6.9 mph 80 % 0.00 in
14:14 57.0 °F 51.2 °F 29.76 in NE 3.4 mph 4.6 mph 81 % 0.00 in
14:19 56.8 °F 51.0 °F 29.76 in ENE 2.4 mph 6.9 mph 81 % 0.00 in
14:24 56.7 °F 50.9 °F 29.75 in ENE 0.5 mph 3.5 mph 81 % 0.00 in
14:29 56.5 °F 51.1 °F 29.76 in ENE 3.1 mph 4.6 mph 82 % 0.00 in
14:35 56.4 °F 51.3 °F 29.75 in NE 2.1 mph 3.5 mph 83 % 0.00 in
14:40 56.3 °F 51.2 °F 29.75 in ENE 3.3 mph 4.6 mph 83 % 0.00 in
14:45 56.2 °F 51.4 °F 29.75 in ENE 2.8 mph 3.5 mph 84 % 0.00 in
14:50 56.1 °F 51.3 °F 29.75 in ENE 3.4 mph 4.0 mph 84 % 0.00 in
14:55 56.0 °F 51.2 °F 29.74 in ENE 0.5 mph 2.0 mph 84 % 0.00 in
15:00 55.9 °F 51.5 °F 29.74 in ENE 1.5 mph 1.5 mph 85 % 0.00 in
15:05 55.8 °F 51.0 °F 29.74 in SSE 3.4 mph 6.9 mph 84 % 0.00 in
15:10 56.0 °F 50.9 °F 29.74 in SE 3.9 mph 6.9 mph 83 % 0.00 in
15:15 56.3 °F 50.9 °F 29.73 in SE 2.0 mph 3.5 mph 82 % 0.00 in
15:20 56.4 °F 51.0 °F 29.73 in SSE 1.6 mph 4.0 mph 82 % 0.00 in
15:26 56.5 °F 51.4 °F 29.73 in SSE 1.6 mph 5.0 mph 83 % 0.00 in
15:31 56.3 °F 51.2 °F 29.73 in SSE 2.8 mph 5.8 mph 83 % 0.00 in
15:36 56.2 °F 50.8 °F 29.74 in ESE 3.5 mph 5.8 mph 82 % 0.00 in
15:41 56.0 °F 50.9 °F 29.73 in SE 2.3 mph 4.6 mph 83 % 0.00 in
15:46 55.7 °F 50.6 °F 29.74 in SE 2.5 mph 4.6 mph 83 % 0.00 in
15:51 55.5 °F 50.4 °F 29.73 in SE 1.6 mph 4.6 mph 83 % 0.00 in
15:56 55.4 °F 50.6 °F 29.73 in SE 1.2 mph 3.5 mph 84 % 0.00 in
16:01 55.2 °F 50.4 °F 29.73 in SE 0.6 mph 2.3 mph 84 % 0.00 in
16:06 55.0 °F 50.6 °F 29.72 in East 0.6 mph 2.3 mph 85 % 0.00 in
16:11 54.7 °F 50.3 °F 29.70 in East 1.2 mph 3.5 mph 85 % 0.00 in
16:17 54.5 °F 50.1 °F 29.71 in SSE 3.1 mph 4.6 mph 85 % 0.00 in
16:22 54.2 °F 49.8 °F 29.70 in South 3.4 mph 6.0 mph 85 % 0.00 in
16:27 54.0 °F 49.9 °F 29.70 in SE 2.3 mph 5.8 mph 86 % 0.00 in
16:32 53.9 °F 49.8 °F 29.69 in SSE 0.6 mph 2.0 mph 86 % 0.00 in
16:37 53.7 °F 49.6 °F 29.68 in East 3.1 mph 5.0 mph 86 % 0.00 in
16:42 53.5 °F 49.7 °F 29.69 in SSE 2.2 mph 5.8 mph 87 % 0.00 in
16:47 53.3 °F 49.5 °F 29.69 in ESE 2.7 mph 5.0 mph 87 % 0.00 in
16:52 53.1 °F 49.3 °F 29.69 in SE 1.5 mph 8.1 mph 87 % 0.00 in
16:57 53.0 °F 49.5 °F 29.69 in South 1.1 mph 3.5 mph 88 % 0.00 in
17:02 52.9 °F 49.4 °F 29.69 in SSE 3.1 mph 5.0 mph 88 % 0.00 in
17:07 52.8 °F 49.3 °F 29.70 in SSE 0.7 mph 3.5 mph 88 % 0.00 in
17:12 52.8 °F 49.3 °F 29.69 in SSE 1.8 mph 3.5 mph 88 % 0.00 in
17:18 52.7 °F 49.5 °F 29.69 in Calm   3.5 mph 89 % 0.00 in
17:23 52.7 °F 49.5 °F 29.69 in SSE 2.8 mph 4.6 mph 89 % 0.00 in
17:28 52.6 °F 49.4 °F 29.70 in SSE 2.4 mph 4.0 mph 89 % 0.00 in
17:33 52.6 °F 49.4 °F 29.69 in SE 1.7 mph 3.5 mph 89 % 0.00 in
17:38 52.6 °F 49.4 °F 29.69 in Calm   1.2 mph 89 % 0.00 in
17:43 52.6 °F 49.4 °F 29.70 in South 0.4 mph 2.3 mph 89 % 0.00 in
17:48 52.6 °F 49.4 °F 29.70 in SW 1.2 mph 3.5 mph 89 % 0.00 in
17:53 52.6 °F 49.4 °F 29.69 in SW 0.9 mph 2.3 mph 89 % 0.00 in
17:58 52.6 °F 49.4 °F 29.68 in SE 0.5 mph 2.0 mph 89 % 0.00 in
18:03 52.6 °F 49.4 °F 29.68 in Calm     89 % 0.00 in
18:08 52.6 °F 49.4 °F 29.68 in Calm     89 % 0.00 in
18:14 52.5 °F 49.4 °F 29.67 in SE 0.1 mph   89 % 0.00 in
18:19 52.5 °F 49.4 °F 29.68 in Calm     89 % 0.00 in
18:24 52.5 °F 49.4 °F 29.68 in Calm     89 % 0.00 in
18:29 52.5 °F 49.4 °F 29.67 in SE 0.4 mph 2.3 mph 89 % 0.00 in
18:34 52.5 °F 49.4 °F 29.67 in Calm     89 % 0.00 in
18:39 52.5 °F 49.4 °F 29.66 in SE 1.4 mph 2.3 mph 89 % 0.00 in
18:44 52.4 °F 49.3 °F 29.65 in ESE 1.5 mph 3.5 mph 89 % 0.00 in
18:49 52.4 °F 49.6 °F 29.65 in ESE 0.8 mph 2.3 mph 90 % 0.00 in
18:54 52.3 °F 49.5 °F 29.64 in ESE 0.2 mph 1.2 mph 90 % 0.00 in
18:59 52.3 °F 49.5 °F 29.65 in Calm   1.2 mph 90 % 0.00 in
19:04 52.3 °F 49.5 °F 29.65 in Calm     90 % 0.00 in
19:09 52.2 °F 49.4 °F 29.66 in Calm     90 % 0.00 in
19:15 52.2 °F 49.4 °F 29.65 in Calm     90 % 0.00 in
19:20 52.2 °F 49.4 °F 29.64 in ESE 0.1 mph 1.2 mph 90 % 0.00 in
19:25 52.1 °F 49.3 °F 29.64 in Calm   1.2 mph 90 % 0.00 in
19:30 52.1 °F 49.3 °F 29.64 in Calm     90 % 0.00 in
19:35 52.1 °F 49.3 °F 29.63 in Calm     90 % 0.00 in
19:40 52.2 °F 49.4 °F 29.64 in Calm     90 % 0.00 in
19:45 52.2 °F 49.4 °F 29.63 in Calm     90 % 0.00 in
19:50 52.2 °F 49.4 °F 29.63 in Calm     90 % 0.00 in
19:55 52.2 °F 49.4 °F 29.63 in Calm     90 % 0.00 in
20:00 52.2 °F 49.4 °F 29.64 in Calm     90 % 0.00 in
20:05 52.2 °F 49.4 °F 29.63 in ESE 0.9 mph 2.3 mph 90 % 0.00 in
20:10 52.2 °F 49.4 °F 29.62 in Calm   1.2 mph 90 % 0.00 in
20:15 52.2 °F 49.4 °F 29.62 in Calm     90 % 0.00 in
20:20 52.2 °F 49.4 °F 29.62 in ENE 0.2 mph 1.2 mph 90 % 0.00 in
20:26 52.2 °F 49.4 °F 29.62 in ENE 0.3 mph 1.2 mph 90 % 0.00 in
20:31 52.2 °F 49.7 °F 29.61 in ENE 1.1 mph 2.3 mph 91 % 0.00 in
20:36 52.1 °F 49.6 °F 29.61 in ENE 0.1 mph 1.2 mph 91 % 0.00 in
20:41 52.1 °F 49.6 °F 29.60 in ENE 1.2 mph 2.3 mph 91 % 0.00 in
20:46 52.1 °F 49.6 °F 29.60 in ENE 0.6 mph 1.2 mph 91 % 0.00 in
20:51 52.1 °F 49.8 °F 29.60 in ENE 1.5 mph 2.3 mph 92 % 0.00 in
20:56 52.1 °F 49.8 °F 29.59 in ENE 1.6 mph 3.5 mph 92 % 0.00 in
21:01 52.1 °F 49.8 °F 29.59 in ENE 1.0 mph 2.3 mph 92 % 0.00 in
21:06 52.1 °F 49.8 °F 29.59 in Calm     92 % 0.00 in
21:11 52.2 °F 49.9 °F 29.59 in ENE 0.3 mph 1.2 mph 92 % 0.00 in
21:17 52.2 °F 49.9 °F 29.59 in Calm     92 % 0.00 in
21:22 52.3 °F 50.0 °F 29.59 in ENE 1.2 mph 2.3 mph 92 % 0.00 in
21:27 52.3 °F 50.3 °F 29.58 in ENE 0.3 mph 1.2 mph 93 % 0.00 in
21:32 52.4 °F 50.4 °F 29.58 in ENE 0.4 mph 1.2 mph 93 % 0.00 in
21:37 52.5 °F 50.5 °F 29.58 in ENE 0.5 mph 1.2 mph 93 % 0.00 in
21:42 52.5 °F 50.5 °F 29.57 in ENE 2.1 mph 3.5 mph 93 % 0.00 in
21:47 52.6 °F 50.6 °F 29.57 in ENE 1.2 mph 3.5 mph 93 % 0.00 in
21:52 52.7 °F 50.7 °F 29.56 in ENE 2.5 mph 3.5 mph 93 % 0.00 in
21:57 52.7 °F 50.4 °F 29.55 in ENE 2.2 mph 3.5 mph 92 % 0.00 in
22:02 52.8 °F 50.5 °F 29.55 in ENE 2.0 mph 3.5 mph 92 % 0.00 in
22:08 52.8 °F 50.5 °F 29.55 in East 2.2 mph 4.6 mph 92 % 0.00 in
22:13 52.9 °F 50.6 °F 29.54 in ENE 2.7 mph 4.6 mph 92 % 0.00 in
22:18 52.9 °F 50.6 °F 29.53 in East 2.5 mph 5.0 mph 92 % 0.00 in
22:23 52.9 °F 50.6 °F 29.52 in ENE 2.5 mph 4.6 mph 92 % 0.00 in
22:28 52.9 °F 50.6 °F 29.52 in East 3.8 mph 5.8 mph 92 % 0.00 in
22:33 53.0 °F 50.7 °F 29.52 in East 3.3 mph 5.0 mph 92 % 0.00 in
22:38 53.0 °F 51.0 °F 29.51 in East 3.4 mph 4.6 mph 93 % 0.00 in
22:43 53.1 °F 51.1 °F 29.51 in East 3.5 mph 5.0 mph 93 % 0.00 in
22:48 53.1 °F 51.1 °F 29.50 in East 3.5 mph 4.6 mph 93 % 0.00 in
22:53 53.2 °F 51.2 °F 29.50 in ENE 3.7 mph 6.9 mph 93 % 0.00 in
22:59 53.2 °F 51.2 °F 29.50 in East 1.9 mph 3.5 mph 93 % 0.00 in
23:04 53.2 °F 51.2 °F 29.49 in East 2.7 mph 3.5 mph 93 % 0.00 in
23:09 53.2 °F 51.2 °F 29.49 in East 3.5 mph 5.8 mph 93 % 0.00 in
23:14 53.2 °F 51.2 °F 29.49 in East 1.7 mph 3.0 mph 93 % 0.00 in
23:19 53.2 °F 51.2 °F 29.48 in East 3.5 mph 4.6 mph 93 % 0.00 in
23:24 53.2 °F 51.2 °F 29.47 in ENE 2.9 mph 3.5 mph 93 % 0.00 in
23:29 53.1 °F 51.1 °F 29.47 in East 4.3 mph 7.0 mph 93 % 0.00 in
23:34 53.0 °F 51.0 °F 29.45 in East 5.0 mph 6.9 mph 93 % 0.00 in
23:39 52.9 °F 50.9 °F 29.45 in East 4.8 mph 6.9 mph 93 % 0.00 in
23:44 52.8 °F 50.8 °F 29.45 in ESE 4.7 mph 6.9 mph 93 % 0.00 in
23:50 52.7 °F 50.7 °F 29.45 in East 2.7 mph 3.5 mph 93 % 0.00 in
23:55 52.6 °F 50.9 °F 29.45 in ESE 0.7 mph 2.3 mph 94 % 0.00 in
Crab Meadow Weather
Compliments of Weather Underground - 3 mb

Script developed by  Jim McMurry - jmcmurry@mwt.net Adapted for the template by  Wim van der Kuil - Leuven-Template.eu

Lightning: Lightning's return stroke is hotter than the surface of the sun. Lightning is 50,000 degrees F. The sun is about 11,000 degrees F.